Tracking 29892 objects as of 21-Nov-2024
HD Live streaming from Space Station
objects crossing your sky now

STARLINK-30505

Track STARLINK-30505 now!
10-day predictions
STARLINK-30505 is classified as:


NORAD ID: 57972
Int'l Code: 2023-151J
Perigee: 565.4 km
Apogee: 566.9 km
Inclination: 43.0 °
Period: 95.8 minutes
Semi major axis: 6937 km
RCS: Unknown
Launch date: September 30, 2023
Source: United States (US)
Launch site: AIR FORCE EASTERN TEST RANGE (AFETR)
Your satellite tracking list
Your tracking list is empty




NASA's NSSDC Master Catalog

Two Line Element Set (TLE):
1 57972U 23151J   24325.66928734  .00000976  00000-0  87266-4 0  9998
2 57972  43.0024  34.8995 0001083 261.8810  98.1909 15.02551684 64420
Source of the keplerian elements: AFSPC